When you browse on this site, cookies collect data to enhance your experience and personalize the content and advertising you see.
Visit our Privacy Policy to learn more. By continuing to use the site, you agree to this use of cookies and data.
  • In Hungary
  • List of Countries
  • For 7 days
  • Water Temperature
  • Weather Map
  • News
  • Weather Widgets
  • user-avatar
    Login

    Hourly Weather Maloe Ibraevo

    Today, 14 October, Monday

    Time Temperature Precipitation Wind Pressure Humidity
    00:00 +7°C° 0.1 mm 5 mps 732 mmHg 86%
    01:00 +7°C° 0.1 mm 5 mps 732 mmHg 86%
    02:00 +7°C° 0.1 mm 5 mps 732 mmHg 86%
    03:00 +6°C° 0.1 mm 5 mps 732 mmHg 85%
    04:00 +5°C° 0 mm 6 mps 733 mmHg 83%
    05:00 +5°C° 0.1 mm 6 mps 733 mmHg 85%
    06:00 +5°C° 0.1 mm 6 mps 733 mmHg 86%
    07:00 +5°C° 0.1 mm 6 mps 732 mmHg 88%
    08:00 +5°C° 0 mm 6 mps 733 mmHg 84%
    09:00 +7°C° 0 mm 6 mps 733 mmHg 80%
    10:00 +6°C° 0 mm 7 mps 733 mmHg 76%
    11:00 +6°C° 0.1 mm 7 mps 734 mmHg 76%
    12:00 +6°C° 0.1 mm 7 mps 734 mmHg 75%
    13:00 +6°C° 0.1 mm 7 mps 734 mmHg 75%
    14:00 +8°C° 0.1 mm 7 mps 735 mmHg 73%
    15:00 +8°C° 0.1 mm 6 mps 735 mmHg 71%
    16:00 +8°C° 0.1 mm 6 mps 736 mmHg 69%
    17:00 +7°C° 0.1 mm 6 mps 736 mmHg 73%
    18:00 +7°C° 0.1 mm 5 mps 736 mmHg 76%
    19:00 +6°C° 0.1 mm 5 mps 737 mmHg 80%
    20:00 +6°C° 0.2 mm 5 mps 737 mmHg 82%
    21:00 +6°C° 0.2 mm 5 mps 737 mmHg 83%
    22:00 +6°C° 0.2 mm 5 mps 737 mmHg 84%
    23:00 +6°C° 0.1 mm 5 mps 737 mmHg 85%

    Tomorrow, 15 October, Tuesday

    Time Temperature Precipitation Wind Pressure Humidity
    00:00 +6°C° 0.1 mm 5 mps 737 mmHg 86%
    01:00 +5°C° 0.1 mm 5 mps 737 mmHg 87%
    02:00 +5°C° 0 mm 5 mps 737 mmHg 89%
    03:00 +4°C° 0 mm 4 mps 737 mmHg 90%
    04:00 +4°C° 0 mm 4 mps 738 mmHg 91%
    05:00 +4°C° 0 mm 4 mps 737 mmHg 90%
    06:00 +4°C° 0 mm 4 mps 737 mmHg 89%
    07:00 +3°C° 0 mm 5 mps 737 mmHg 88%
    08:00 +5°C° 0.2 mm 5 mps 736 mmHg 89%
    09:00 +5°C° 0.2 mm 5 mps 735 mmHg 89%
    10:00 +5°C° 0.2 mm 5 mps 734 mmHg 89%
    11:00 +6°C° 1.2 mm 5 mps 733 mmHg 91%
    12:00 +6°C° 1.2 mm 5 mps 732 mmHg 92%
    13:00 +7°C° 1.2 mm 5 mps 731 mmHg 93%
    14:00 +7°C° 0.9 mm 4 mps 731 mmHg 94%
    15:00 +8°C° 0.9 mm 4 mps 731 mmHg 94%
    16:00 +10°C° 0.9 mm 3 mps 731 mmHg 95%
    17:00 +9°C° 0.1 mm 3 mps 731 mmHg 94%
    18:00 +7°C° 0.1 mm 4 mps 731 mmHg 94%
    19:00 +7°C° 0.1 mm 4 mps 732 mmHg 94%
    20:00 +6°C° 0.1 mm 4 mps 732 mmHg 93%
    21:00 +6°C° 0.1 mm 5 mps 733 mmHg 91%
    22:00 +5°C° 0.1 mm 5 mps 733 mmHg 90%
    23:00 +5°C° 0 mm 5 mps 734 mmHg 88%

    Day after tomorrow, 16 October, Wednesday

    Time Temperature Precipitation Wind Pressure Humidity
    00:00 +3°C° 0 mm 5 mps 734 mmHg 87%
    01:00 +3°C° 0 mm 6 mps 735 mmHg 86%
    02:00 +3°C° 0 mm 5 mps 736 mmHg 86%
    03:00 +2°C° 0 mm 5 mps 737 mmHg 87%
    04:00 +2°C° 0 mm 5 mps 737 mmHg 88%
    05:00 +2°C° 0 mm 5 mps 738 mmHg 89%
    06:00 +1°C° 0 mm 5 mps 738 mmHg 90%
    07:00 +1°C° 0 mm 5 mps 739 mmHg 91%
    08:00 +1°C° 0 mm 6 mps 739 mmHg 85%
    09:00 +2°C° 0 mm 6 mps 740 mmHg 80%
    10:00 +2°C° 0 mm 7 mps 741 mmHg 74%
    11:00 +2°C° 0 mm 7 mps 741 mmHg 74%
    12:00 +2°C° 0 mm 7 mps 741 mmHg 74%
    13:00 0°C° 0 mm 7 mps 742 mmHg 74%
    14:00 +1°C° 0.1 mm 6 mps 742 mmHg 73%
    15:00 +1°C° 0.1 mm 6 mps 743 mmHg 72%
    16:00 +1°C° 0.1 mm 6 mps 743 mmHg 71%
    17:00 +1°C° 0 mm 6 mps 744 mmHg 71%
    18:00 +1°C° 0 mm 5 mps 744 mmHg 70%
    19:00 +1°C° 0 mm 5 mps 745 mmHg 70%
    20:00 0°C° 0 mm 5 mps 745 mmHg 71%
    21:00 0°C° 0 mm 5 mps 745 mmHg 72%
    22:00 -1°C° 0 mm 5 mps 746 mmHg 74%
    23:00 -1°C° 0 mm 4 mps 746 mmHg 73%

    17 October, Thursday

    Time Temperature Precipitation Wind Pressure Humidity
    00:00 -1°C° 0 mm 4 mps 746 mmHg 73%
    01:00 0°C° 0 mm 3 mps 746 mmHg 73%
    02:00 -1°C° 0 mm 3 mps 747 mmHg 75%
    03:00 -1°C° 0 mm 2 mps 747 mmHg 78%
    04:00 -1°C° 0 mm 2 mps 748 mmHg 80%
    05:00 -2°C° 0 mm 2 mps 748 mmHg 81%
    06:00 -2°C° 0 mm 2 mps 748 mmHg 82%
    07:00 0°C° 0 mm 1 mps 748 mmHg 83%
    08:00 -1°C° 0 mm 2 mps 748 mmHg 78%
    09:00 +1°C° 0 mm 2 mps 748 mmHg 73%
    10:00 +2°C° 0 mm 2 mps 748 mmHg 69%
    11:00 +2°C° 0 mm 3 mps 748 mmHg 67%
    12:00 +2°C° 0 mm 3 mps 748 mmHg 66%
    13:00 +3°C° 0 mm 3 mps 747 mmHg 64%
    14:00 +3°C° 0.1 mm 3 mps 747 mmHg 67%
    15:00 +3°C° 0.1 mm 3 mps 747 mmHg 70%
    16:00 +3°C° 0.1 mm 3 mps 746 mmHg 72%
    17:00 +3°C° 0.2 mm 4 mps 746 mmHg 76%
    18:00 +1°C° 0.2 mm 5 mps 745 mmHg 79%
    19:00 +1°C° 0.2 mm 6 mps 745 mmHg 82%
    20:00 +1°C° 0.1 mm 6 mps 744 mmHg 79%
    21:00 +2°C° 0.1 mm 7 mps 743 mmHg 76%
    22:00 +2°C° 0.1 mm 7 mps 743 mmHg 72%
    23:00 +2°C° 0 mm 7 mps 742 mmHg 70%

    18 October, Friday

    Time Temperature Precipitation Wind Pressure Humidity
    00:00 +1°C° 0 mm 8 mps 741 mmHg 68%
    01:00 +2°C° 0 mm 9 mps 740 mmHg 66%
    02:00 +2°C° 0 mm 9 mps 740 mmHg 66%
    03:00 +1°C° 0 mm 9 mps 739 mmHg 65%
    04:00 +1°C° 0 mm 9 mps 738 mmHg 65%
    05:00 +1°C° 0 mm 9 mps 737 mmHg 65%
    06:00 +1°C° 0 mm 9 mps 737 mmHg 65%
    07:00 +1°C° 0 mm 9 mps 736 mmHg 66%
    08:00 +2°C° 0.4 mm 9 mps 736 mmHg 69%
    09:00 +2°C° 0.4 mm 8 mps 735 mmHg 73%
    10:00 +2°C° 0.4 mm 8 mps 735 mmHg 76%
    11:00 +2°C° 0 mm 8 mps 735 mmHg 78%
    12:00 +4°C° 0 mm 7 mps 735 mmHg 80%
    13:00 +4°C° 0 mm 7 mps 735 mmHg 81%
    14:00 +3°C° 0.4 mm 6 mps 735 mmHg 78%
    15:00 +2°C° 0.4 mm 6 mps 735 mmHg 74%
    16:00 +1°C° 0.4 mm 6 mps 735 mmHg 71%
    17:00 +1°C° 0 mm 6 mps 735 mmHg 73%
    18:00 -1°C° 0 mm 6 mps 736 mmHg 74%
    19:00 -2°C° 0 mm 6 mps 736 mmHg 75%
    20:00 -2°C° 0.1 mm 7 mps 736 mmHg 78%
    21:00 -2°C° 0.1 mm 7 mps 736 mmHg 80%
    22:00 -3°C° 0.1 mm 7 mps 737 mmHg 82%
    23:00 -4°C° 0.1 mm 8 mps 737 mmHg 81%

    19 October, Saturday

    Time Temperature Precipitation Wind Pressure Humidity
    00:00 -5°C° 0.1 mm 8 mps 737 mmHg 81%
    01:00 -5°C° 0.1 mm 8 mps 737 mmHg 80%
    02:00 -6°C° 0 mm 8 mps 738 mmHg 80%
    03:00 -6°C° 0 mm 8 mps 738 mmHg 80%
    04:00 -6°C° 0 mm 9 mps 739 mmHg 80%
    05:00 -6°C° 0 mm 8 mps 739 mmHg 80%
    06:00 -6°C° 0 mm 8 mps 740 mmHg 80%
    07:00 -7°C° 0 mm 8 mps 741 mmHg 79%
    08:00 -6°C° 0 mm 8 mps 741 mmHg 77%
    09:00 -6°C° 0 mm 8 mps 742 mmHg 74%
    10:00 -6°C° 0 mm 8 mps 742 mmHg 72%
    11:00 -5°C° 0 mm 8 mps 743 mmHg 70%
    12:00 -4°C° 0 mm 7 mps 743 mmHg 68%
    13:00 -3°C° 0 mm 7 mps 744 mmHg 66%
    14:00 -3°C° 0 mm 7 mps 744 mmHg 64%
    15:00 -3°C° 0 mm 6 mps 744 mmHg 62%
    16:00 -3°C° 0 mm 6 mps 745 mmHg 60%
    17:00 -4°C° 0 mm 5 mps 745 mmHg 62%
    18:00 -3°C° 0 mm 4 mps 746 mmHg 64%
    19:00 -4°C° 0 mm 4 mps 746 mmHg 66%
    20:00 -4°C° 0 mm 3 mps 747 mmHg 66%
    21:00 -4°C° 0 mm 3 mps 747 mmHg 67%
    22:00 -5°C° 0 mm 3 mps 748 mmHg 68%
    23:00 -5°C° 0 mm 3 mps 748 mmHg 68%
    Show more